Location: Nairn
(57.5833°N, 3.8667°W)
Time: 02:03:00
(UTC+00:00)

IRS-1D - Pass Details

Date: 07 August 2020
Orbit: 741 x 816 km, 98.6° (Epoch: 19 September)

Event Time Altitude Azimuth Distance (km) Brightness Sun altitude
Rises 02:19:34 0° 18° (NNE) 3,209 8.6 -12.1°
Reaches altitude 10° 02:21:55 10° 24° (NNE) 2,287 7.5 -12.0°
Maximum altitude 02:26:50 51° 101° (E) 953 4.1 -11.7°
Drops below altitude 10° 02:31:47 10° 177° (S) 2,313 5.5 -11.3°
Enters shadow 02:31:55 - 177° (S) 2,361 5.5 -11.3°
